This is the latest recevied weather packets stored in our database for station/object WL7CLI. If no packets are shown the sender has not sent any weather packets the latest 10 day(s).
| Time | Temp. | Humidity | Pressure | Rain* | Wind** | Luminosity | Snow |
|---|---|---|---|---|---|---|---|
| 1777735703 | 11.67° C | 40% | 1021 hPa | 0 mm | - | - | - |
| 1777735134 | 11.67° C | 40% | 1021.6 hPa | 0 mm | - | - | - |
| 1777734973 | 11.67° C | 42% | 1021.5 hPa | 0 mm | - | - | - |
| 1777733933 | 11.11° C | 41% | 1021.7 hPa | 0 mm | - | - | - |
| 1777733904 | 11.11° C | 41% | 1021.1 hPa | 0 mm | - | - | - |
| 1777733772 | 10.56° C | 39% | 1021.6 hPa | 0 mm | - | - | - |
| 1777732735 | 10° C | 45% | 1021.6 hPa | 0 mm | - | - | - |
| 1777732572 | 10° C | 46% | 1021.6 hPa | 0 mm | - | - | - |
| 1777732104 | 10° C | 47% | 1021.1 hPa | 0 mm | - | - | - |
| 1777731534 | 9.44° C | 53% | 1021.6 hPa | 0 mm | - | - | - |
| 1777731371 | 8.89° C | 53% | 1021.6 hPa | 0 mm | - | - | - |
| 1777730334 | 8.33° C | 56% | 1021.6 hPa | 0 mm | - | - | - |
| 1777730304 | 8.33° C | 56% | 1021.1 hPa | 0 mm | - | - | - |
| 1777730173 | 8.33° C | 58% | 1021.7 hPa | 0 mm | - | - | - |
| 1777729134 | 6.67° C | 61% | 1021.6 hPa | 0 mm | - | - | - |
| 1777728974 | 6.67° C | 61% | 1021.6 hPa | 0 mm | - | - | - |
| 1777728504 | 6.67° C | 63% | 1021 hPa | 0 mm | - | - | - |
| 1777727934 | 6.11° C | 65% | 1021.8 hPa | 0 mm | - | - | - |
| 1777727773 | 6.11° C | 66% | 1021.7 hPa | 0 mm | - | - | - |
| 1777726734 | 5.56° C | 66% | 1021.6 hPa | 0 mm | - | - | - |
| 1777726704 | 5.56° C | 66% | 1020.8 hPa | 0 mm | - | - | - |
| 1777726617 | 5.56° C | 66% | 1021.6 hPa | 0 mm | - | - | - |
| 1777726571 | 5.56° C | 66% | 1021.6 hPa | 0 mm | - | - | - |
| 1777725534 | 4.44° C | 68% | 1021.5 hPa | 0 mm | - | - | - |
| 1777725373 | 4.44° C | 69% | 1021.5 hPa | 0 mm | - | - | - |
* Rain latest hour (hover to see other rain measurements)
** Current wind speed in m/s (hover to see current wind gust speed)